Luxeuil, France

2:20 AM CEST on May 30, 2017 (GMT +0200)
Saint Sauveur Air Base

Weather History for LFSX - February, 2013

Change the Weather History Date:

Monday, February 18, 2013

  Actual Average Record
Temperature  
Mean Temperature 32 °F -  
Max Temperature 44 °F 48 °F 57 °F (1998)
Min Temperature 21 °F 32 °F 12 °F (2003)
Degree Days  
Heating Degree Days 32    
Moisture  
Dew Point 25 °F    
Average Humidity 78    
Maximum Humidity 93    
Minimum Humidity 49    
Precipitation  
Precipitation 0.00 in - - ()
Sea Level Pressure  
Sea Level Pressure 30.05 in    
Wind  
Wind Speed 1 mph ()    
Max Wind Speed 10 mph    
Max Gust Speed -    
Visibility 4.1 miles    
Events Fog    
Averages and records for this station are not official NWS values.
T = Trace of Precipitation, MM = Missing Value Source: Averaged Metar Reports

Daily Weather History Graph

Daily Weather History Graph

Search for Another Location

Airport or City:

Trip Planner

Search our weather history database for the weather conditions in past years. The results will help you decide how hot, cold, wet, or windy it might be!

Date:

Astronomy

Feb. 18, 2013 Rise Set
Actual Time 7:35 AM CET 6:02 PM CET
Civil Twilight 7:03 AM CET 6:33 PM CET
Nautical Twilight 6:27 AM CET 7:10 PM CET
Astronomical Twilight 5:52 AM CET 7:45 PM CET
Moon 11:24 AM CET (2/18) 2:12 AM CET (2/18)
Length of Visible Light 11h 30m
Length of Day
10h 26m
First Quarter, 56% of the Moon is Illuminated
Feb 18
First Quarter
Feb 25
Full
Mar 4
Last Quarter
Mar 11
New
Mar 19
First Quarter

Hourly Weather History & Observations

Time (CET) Temp. Windchill Dew Point Humidity Pressure Visibility Wind Dir Wind Speed Gust Speed Precip Events Conditions
12:00 AM 26.6 °F - 24.8 °F 93% 30.06 in 2.5 mi Calm Calm - N/A   Mist
12:30 AM 26.6 °F - 24.8 °F 93% 30.06 in 1.8 mi Calm Calm - N/A   Mist
1:00 AM 24.8 °F - 23.0 °F 93% 30.06 in - Calm Calm - N/A   Mostly Cloudy
1:30 AM 24.8 °F - 23.0 °F 93% 30.06 in 1.6 mi Calm Calm - N/A   Mist
2:00 AM 24.8 °F - 23.0 °F 93% 30.04 in 1.9 mi Variable 1.2 mph - N/A   Scattered Clouds
2:30 AM 24.8 °F - 21.2 °F 86% 30.04 in 0.2 mi Calm Calm - N/A Fog Light Freezing Fog
3:00 AM 23.0 °F - 19.4 °F 86% 30.04 in 0.1 mi Calm Calm - N/A Fog Light Freezing Fog
3:30 AM 23.0 °F - 21.2 °F 93% 30.04 in 0.1 mi Calm Calm - N/A Fog Light Freezing Fog
4:00 AM 23.0 °F - 21.2 °F 93% 30.04 in 0.3 mi Calm Calm - N/A Fog Light Freezing Fog
4:30 AM 23.0 °F - 19.4 °F 86% 30.04 in 0.2 mi Calm Calm - N/A Fog Light Freezing Fog
5:00 AM 23.0 °F - 21.2 °F 93% 30.04 in - NE 2.3 mph - N/A   Mist
5:30 AM 23.0 °F - 21.2 °F 93% 30.04 in 3.7 mi Calm Calm - N/A   Unknown
6:00 AM 23.0 °F - 21.2 °F 93% 30.04 in 3.7 mi Calm Calm - N/A   Unknown
6:30 AM 23.0 °F - 17.6 °F 80% 30.04 in 3.1 mi Calm Calm - N/A   Mist
7:00 AM 23.0 °F - 21.2 °F 93% 30.04 in 3.1 mi Calm Calm - N/A   Mist
7:30 AM 21.2 °F - 19.4 °F 93% 30.04 in 1.6 mi Calm Calm - N/A   Mist
8:00 AM 23.0 °F - 19.4 °F 86% 30.04 in - Calm Calm - N/A   Mist
8:30 AM 24.8 °F - 21.2 °F 86% 30.06 in 3.7 mi Calm Calm - N/A   Unknown
9:00 AM 24.8 °F - 23.0 °F 93% 30.06 in 3.1 mi Calm Calm - N/A   Mist
9:30 AM 28.4 °F - 26.6 °F 93% 30.06 in 4.3 mi Calm Calm - N/A   Unknown
10:00 AM 30.2 °F - 26.6 °F 86% 30.06 in 5.0 mi Calm Calm - N/A   Unknown
10:30 AM 33.8 °F - 28.4 °F 81% 30.06 in 5.0 mi Variable 2.3 mph - N/A   Unknown
11:00 AM 35.6 °F - 30.2 °F 81% 30.06 in 6.2 mi Variable 1.2 mph - N/A   Unknown
11:30 AM 39.2 °F - 28.4 °F 65% 30.06 in 6.2 mi Variable 2.3 mph - N/A   Unknown
12:00 PM 42.8 °F - 28.4 °F 57% 30.06 in 6.2 mi Variable 2.3 mph - N/A   Unknown
12:30 PM 42.8 °F 37.5 °F 28.4 °F 57% 30.06 in 6.2 mi ESE 9.2 mph - N/A   Unknown
1:30 PM 42.8 °F 37.0 °F 28.4 °F 57% 30.04 in 6.2 mi SE 10.4 mph - N/A   Unknown
2:00 PM 42.8 °F 37.5 °F 28.4 °F 57% 30.04 in 6.2 mi SE 9.2 mph - N/A   Unknown
2:30 PM 44.6 °F 40.7 °F 28.4 °F 53% 30.04 in 6.2 mi SE 6.9 mph - N/A   Unknown
3:00 PM 44.6 °F 40.7 °F 28.4 °F 53% 30.04 in 6.2 mi SSE 6.9 mph - N/A   Unknown
3:30 PM 44.6 °F 40.7 °F 26.6 °F 49% 30.04 in 6.2 mi South 6.9 mph - N/A   Unknown
4:00 PM 44.6 °F 41.4 °F 28.4 °F 53% 30.04 in 6.2 mi SSE 5.8 mph - N/A   Unknown
4:30 PM 44.6 °F 41.4 °F 28.4 °F 53% 30.04 in 6.2 mi SSE 5.8 mph - N/A   Unknown
5:00 PM 42.8 °F 40.1 °F 28.4 °F 57% 30.04 in 6.2 mi SSE 4.6 mph - N/A   Unknown
5:30 PM 41.0 °F 39.0 °F 26.6 °F 57% 30.04 in 6.2 mi SSE 3.5 mph - N/A   Unknown
6:00 PM 41.0 °F - 26.6 °F 57% 30.06 in 6.2 mi ESE 2.3 mph - N/A   Unknown
6:30 PM 39.2 °F - 26.6 °F 61% 30.06 in 6.2 mi Calm Calm - N/A   Unknown
7:00 PM 35.6 °F - 26.6 °F 70% 30.06 in 6.2 mi Variable 1.2 mph - N/A   Unknown
7:30 PM 35.6 °F - 26.6 °F 70% 30.06 in 3.7 mi Variable 1.2 mph - N/A   Unknown
8:00 PM 32.0 °F 28.7 °F 26.6 °F 80% 30.06 in 5.0 mi ENE 3.5 mph - N/A   Unknown
8:30 PM 30.2 °F - 24.8 °F 80% 30.06 in 6.2 mi Variable 1.2 mph - N/A   Unknown
9:00 PM 30.2 °F - 26.6 °F 86% 30.06 in 5.6 mi Variable 2.3 mph - N/A   Unknown
9:30 PM 28.4 °F 24.6 °F 24.8 °F 86% 30.06 in 5.6 mi ESE 3.5 mph - N/A   Unknown
10:00 PM 28.4 °F - 24.8 °F 86% 30.06 in 3.1 mi Calm Calm - N/A   Mist
10:30 PM 28.4 °F - 24.8 °F 86% 30.06 in 3.1 mi Variable 2.3 mph - N/A   Mist
11:00 PM 28.4 °F - 24.8 °F 86% 30.06 in - Calm Calm - N/A   Mist
11:30 PM 28.4 °F - 26.6 °F 93% 30.06 in 1.7 mi Calm Calm - N/A   Mist